Regional Weather Roundup
Issued by NWS

Home | Current Version | Previous Version | Graphics & Text | Print | Product List | Glossary On
Versions: 1 2 3 4 5 6 7 8 9 10 11 12 13 14 15 16 17 18 19 20 21 22 23 24 25 26 27 28 29 30 31 32 33 34 35 36 37 38 39 40 41 42 43 44 45 46 47 48 49 50
000
ASUS43 KLMK 231310
RWRKY
KENTUCKY REGIONAL WEATHER ROUNDUP
NATIONAL WEATHER SERVICE LOUISVILLE KY
800 AM EST THU FEB 23 2017

NOTE "FAIR" INDICATES FEW OR NO CLOUDS BELOW 12,000 FEET
WITH NO SIGNIFICANT WEATHER AND/OR OBSTRUCTIONS TO VISIBILITY.

KYZ001>023-026-027-061>063-070>075-231400-
WESTERN AND SOUTH CENTRAL KENTUCKY

CITY           SKY/WX    TMP DP  RH WIND       PRES   REMARKS
PADUCAH        PTCLDY    55  52  89 S6        29.78R
HENDERSON      CLEAR     54  50  87 S6        29.79S
OWENSBORO      CLOUDY    57  55  93 S7        29.82R
HOPKINSVILLE   CLOUDY    59  59 100 S7        29.82F
BOWLING GREEN  CLOUDY    58  55  90 S3        29.85S
GLASGOW        CLOUDY    56  56 100 S3        29.86S
$$

KYZ024-025-028>034-038-045-046-053-231400-
NORTH CENTRAL KENTUCKY

CITY           SKY/WX    TMP DP  RH WIND       PRES   REMARKS
LOUISVILLE/SDF CLOUDY    62  56  80 S7        29.82S
LOUISVILLE/LOU CLOUDY    61  56  83 S5        29.83S
FORT KNOX      CLOUDY    58  58  99 S9        29.82R
$$

KYZ035>037-039>044-047>052-055>060-089>105-231400-
NORTHEAST KENTUCKY

CITY           SKY/WX    TMP DP  RH WIND       PRES   REMARKS
LEXINGTON      CLOUDY    56  53  90 S8        29.86S
COVINGTON      CLOUDY    59  56  89 S9        29.81S
FRANKFORT      MOCLDY    57  53  86 S5        29.84R
$$

KYZ054-064>069-076>088-106>120-231400-
SOUTHEAST KENTUCKY

CITY           SKY/WX    TMP DP  RH WIND       PRES   REMARKS
JACKSON        CLOUDY    55  52  89 CALM      29.90R
LONDON         CLOUDY    50  48  93 CALM      29.91R FOG
SOMERSET       CLOUDY    52  52 100 CALM      29.91R FOG
MIDDLESBORO    CLOUDY    46  46 100 CALM      29.94R FOG
MONTICELLO     CLOUDY    46  46 100 VRB5      29.91R FOG
$$





USA.gov is the U.S. government's official web portal to all federal, state and local government web resources and services.